Location: Izdebno
(52.6670°N, 16.2170°E)
Time: 05:58:20
(UTC+01:00)

Vanguard 2 - Visible Passes

Search period start: 30 January 2023 00:00
Search period end: 09 February 2023 00:00
Orbit: 554 x 2930 km, 32.9° (Epoch: 29 January)

Date Brightness Start Highest point End Pass type
(mag) Time Alt. Az. Time Alt. Az. Time Alt. Az.
30 Jan 11.5 01:19:48 14° ESE 01:19:48 14° ESE 01:21:28 10° ESE visible
30 Jan 10.8 03:21:07 28° S 03:21:07 28° S 03:28:55 10° SSE visible
30 Jan 11.1 05:22:27 14° SW 05:25:22 15° SW 05:31:59 10° SSW visible
31 Jan 11.4 01:35:37 16° SE 01:35:37 16° SE 01:37:55 10° SE visible
31 Jan 10.9 03:36:56 26° S 03:36:56 26° S 03:44:45 10° SSE visible
31 Jan 11.3 05:38:16 11° WSW 05:41:14 12° SW 05:45:06 10° SSW visible
01 Feb 11.4 01:51:29 17° SE 01:51:29 17° SE 01:54:14 10° SE visible
01 Feb 11.0 03:52:49 23° SSW 03:52:49 23° SSW 04:00:18 10° SSE visible
01 Feb 11.4 21:26:31 10° SSW 21:26:52 11° SSW 21:26:52 11° SSW visible
02 Feb 11.4 02:07:24 17° SE 02:07:24 17° SE 02:10:23 10° SE visible
02 Feb 11.1 04:08:43 20° SSW 04:08:43 20° SSW 04:15:27 10° S visible
02 Feb 11.3 19:40:58 10° SSE 19:41:37 11° SSE 19:41:37 11° SSE visible
02 Feb 11.4 21:42:04 10° SSW 21:42:58 12° SSW 21:42:58 12° SSW visible
03 Feb 11.4 02:23:21 17° SSE 02:23:21 17° SSE 02:26:21 10° SE visible
03 Feb 11.2 04:24:41 16° SSW 04:24:41 16° SSW 04:30:00 10° S visible
03 Feb 11.1 19:54:27 10° S 19:57:41 14° SSE 19:57:41 14° SSE visible
03 Feb 11.4 21:57:55 10° SW 21:59:01 13° SSW 21:59:01 13° SSW visible
04 Feb 11.4 02:39:20 16° SSE 02:39:20 16° SSE 02:42:04 10° SSE visible
04 Feb 11.4 04:40:40 12° SW 04:40:40 12° SW 04:43:17 10° SSW visible
04 Feb 11.0 20:09:09 10° S 20:13:44 18° SSE 20:13:44 18° SSE visible
04 Feb 11.4 22:13:56 10° SW 22:15:04 13° SW 22:15:04 13° SW visible
05 Feb 11.4 02:55:21 14° S 02:55:21 14° S 02:57:29 10° SSE visible
05 Feb 10.9 20:24:25 10° SSW 20:29:45 21° S 20:29:45 21° S visible
05 Feb 11.4 22:30:09 10° SW 22:31:05 13° SW 22:31:05 13° SW visible
06 Feb 11.5 03:11:24 12° S 03:11:24 12° S 03:12:27 10° S visible
06 Feb 11.1 18:40:54 10° SE 18:42:35 10° SE 18:44:21 10° SE visible
06 Feb 10.8 20:40:03 10° SSW 20:45:43 23° S 20:45:43 23° S visible
06 Feb 11.4 22:46:29 10° SW 22:47:03 12° SW 22:47:03 12° SW visible
07 Feb 10.9 18:53:15 10° SSE 18:58:27 14° SE 19:00:19 14° SE visible
07 Feb 10.7 20:55:56 10° SSW 21:01:39 25° S 21:01:39 25° S visible
07 Feb 11.5 23:02:56 10° WSW 23:02:59 10° WSW 23:02:59 10° WSW visible
08 Feb 10.8 19:07:50 10° S 19:14:23 17° SE 19:16:13 17° SE visible
08 Feb 10.7 21:12:01 10° SW 21:17:33 26° SSW 21:17:33 26° SSW visible
